Total_Precipitation_Accumulation
0.00 0.00 0.00 0.00 0.00 0.00 0.01 0.01 0.08 0.08 0.14 0.12 0.08 0.08 0.01 0.00 0.00 0.00 0.00 0.00 0.00 0.00 0.00 0.00 0.00 0.00 0.00 0.00 0.00 0.00 0.00 0.00 0.04 0.04 0.03 0.00 0.00 0.00 0.00 0.00 0.00 0.00 0.00 0.00 0.00 0.00 0.00 0.00 0.00 0.00 0.00 0.00 0.00 0.00 0.00 0.00 0.00 0.00 0.00 0.00 0.00 0.00 0.00 0.00 0.05 0.05 0.06 0.07 0.06 0.06 0.02 0.01 0.00 0.00 0.00 0.00 0.00 0.00 0.00 0.00 0.00 0.00 0.00 0.00 0.00 0.00 0.00 0.00 0.00 0.00 0.01 0.00 0.00 0.00 0.00 0.00 0.00 0.00 0.00 0.00 0.00 0.00 0.00
0.00 0.00 0.00 0.00 0.00 0.00 0.02 0.01 0.17 0.17 0.15 0.09 0.11 0.11 0.00 0.00 0.00 0.00 0.00 0.00 0.00 0.00 0.00 0.00 0.00 0.00 0.00 0.00 0.00 0.00 0.00 0.01 0.05 0.05 0.01 0.00 0.00 0.00 0.00 0.00 0.00 0.00 0.00 0.00 0.00 0.00 0.00 0.00 0.00 0.00 0.00 0.00 0.00 0.00 0.00 0.00 0.00 0.00 0.00 0.00 0.00 0.00 0.00 0.01 0.05 0.05 0.06 0.06 0.03 0.03 0.01 0.01 0.00 0.00 0.00 0.00 0.00 0.00 0.00 0.00 0.00 0.00 0.00 0.00 0.00 0.00 0.00 0.01 0.00 0.00 0.00 0.00 0.00 0.00 0.00 0.00 0.00 0.00 0.00 0.00 0.00 0.00 0.00
0.00 0.00 0.00 0.00 0.00 0.00 0.02 0.02 0.21 0.21 0.16 0.11 0.05 0.05 0.00 0.00 0.00 0.00 0.00 0.00 0.00 0.00 0.00 0.00 0.00 0.00 0.00 0.00 0.00 0.00 0.00 0.04 0.04 0.04 0.00 0.00 0.00 0.00 0.00 0.00 0.00 0.00 0.00 0.00 0.00 0.00 0.00 0.00 0.00 0.00 0.00 0.00 0.00 0.00 0.00 0.00 0.00 0.00 0.00 0.00 0.00 0.00 0.00 0.01 0.03 0.03 0.04 0.03 0.01 0.01 0.01 0.01 0.01 0.01 0.00 0.00 0.00 0.00 0.00 0.00 0.00 0.00 0.00 0.00 0.01 0.01 0.01 0.00 0.00 0.00 0.00 0.00 0.00 0.00 0.00 0.00 0.00 0.00 0.00 0.00 0.00 0.00 0.00
0.00 0.00 0.00 0.00 0.00 0.00 0.02 0.05 0.19 0.19 0.23 0.15 0.10 0.10 0.03 0.00 0.00 0.00 0.00 0.00 0.00 0.00 0.00 0.00 0.00 0.00 0.00 0.00 0.00 0.00 0.00 0.05 0.02 0.02 0.00 0.00 0.00 0.00 0.00 0.00 0.00 0.00 0.00 0.00 0.00 0.00 0.00 0.00 0.00 0.00 0.00 0.00 0.00 0.00 0.00 0.00 0.00 0.00 0.00 0.00 0.00 0.00 0.00 0.00 0.02 0.02 0.03 0.02 0.02 0.02 0.01 0.02 0.01 0.01 0.00 0.00 0.00 0.00 0.00 0.00 0.00 0.00 0.00 0.01 0.00 0.00 0.00 0.00 0.00 0.00 0.00 0.00 0.00 0.00 0.00 0.00 0.00 0.00 0.00 0.00 0.00 0.00 0.00
0.00 0.00 0.00 0.00 0.00 0.00 0.03 0.08 0.23 0.23 0.17 0.13 0.09 0.09 0.02 0.00 0.00 0.00 0.00 0.00 0.00 0.00 0.00 0.00 0.00 0.00 0.00 0.00 0.00 0.00 0.02 0.03 0.01 0.01 0.00 0.00 0.00 0.00 0.00 0.00 0.00 0.00 0.00 0.00 0.00 0.00 0.00 0.00 0.00 0.00 0.00 0.00 0.00 0.00 0.00 0.00 0.00 0.00 0.00 0.00 0.00 0.00 0.00 0.00 0.01 0.01 0.02 0.03 0.02 0.02 0.03 0.04 0.02 0.02 0.00 0.00 0.00 0.00 0.00 0.00 0.00 0.00 0.01 0.00 0.00 0.00 0.00 0.00 0.00 0.00 0.00 0.00 0.00 0.00 0.00 0.00 0.00 0.00 0.00 0.00 0.00 0.00 0.00
0.01 0.00 0.00 0.00 0.01 0.01 0.05 0.16 0.20 0.20 0.15 0.15 0.12 0.12 0.02 0.00 0.00 0.00 0.00 0.00 0.00 0.00 0.00 0.00 0.00 0.00 0.00 0.00 0.00 0.00 0.05 0.04 0.01 0.01 0.00 0.00 0.00 0.00 0.00 0.00 0.00 0.00 0.00 0.00 0.00 0.00 0.00 0.00 0.00 0.00 0.00 0.00 0.00 0.00 0.00 0.00 0.00 0.00 0.00 0.00 0.00 0.00 0.00 0.00 0.01 0.01 0.03 0.03 0.06 0.06 0.07 0.05 0.02 0.02 0.00 0.00 0.00 0.00 0.00 0.00 0.00 0.01 0.01 0.01 0.02 0.02 0.01 0.00 0.00 0.00 0.00 0.00 0.00 0.00 0.00 0.00 0.00 0.00 0.00 0.00 0.00 0.00 0.00
0.01 0.00 0.00 0.00 0.04 0.04 0.04 0.29 0.19 0.19 0.15 0.13 0.10 0.10 0.00 0.00 0.00 0.00 0.00 0.00 0.00 0.00 0.00 0.00 0.00 0.00 0.00 0.00 0.00 0.00 0.05 0.02 0.00 0.00 0.00 0.00 0.00 0.00 0.00 0.00 0.00 0.00 0.00 0.00 0.00 0.00 0.00 0.00 0.00 0.00 0.00 0.00 0.00 0.00 0.00 0.00 0.00 0.00 0.00 0.00 0.00 0.00 0.00 0.00 0.01 0.01 0.05 0.07 0.09 0.09 0.10 0.07 0.00 0.00 0.00 0.00 0.00 0.00 0.00 0.00 0.00 0.00 0.00 0.01 0.00 0.00 0.00 0.00 0.00 0.00 0.00 0.00 0.00 0.00 0.00 0.00 0.00 0.00 0.00 0.00 0.00 0.00 0.00
0.02 0.00 0.00 0.00 0.05 0.05 0.07 0.22 0.28 0.28 0.17 0.18 0.05 0.05 0.00 0.00 0.00 0.00 0.00 0.00 0.00 0.00 0.00 0.00 0.00 0.00 0.00 0.00 0.00 0.00 0.04 0.02 0.00 0.00 0.00 0.00 0.00 0.00 0.00 0.00 0.00 0.00 0.00 0.00 0.00 0.00 0.00 0.00 0.00 0.00 0.00 0.00 0.00 0.00 0.00 0.00 0.00 0.00 0.00 0.00 0.00 0.00 0.00 0.00 0.01 0.01 0.09 0.11 0.11 0.11 0.07 0.02 0.00 0.00 0.00 0.00 0.00 0.00 0.00 0.00 0.00 0.00 0.00 0.00 0.00 0.00 0.00 0.00 0.00 0.00 0.00 0.00 0.00 0.00 0.00 0.00 0.00 0.00 0.00 0.00 0.00 0.00 0.00
0.03 0.00 0.00 0.00 0.03 0.03 0.08 0.22 0.27 0.27 0.18 0.24 0.05 0.05 0.00 0.00 0.00 0.00 0.00 0.00 0.00 0.00 0.00 0.00 0.00 0.00 0.00 0.00 0.01 0.01 0.05 0.01 0.01 0.01 0.00 0.00 0.00 0.00 0.00 0.00 0.00 0.00 0.00 0.00 0.00 0.00 0.00 0.00 0.00 0.00 0.00 0.00 0.00 0.00 0.00 0.00 0.00 0.00 0.00 0.00 0.00 0.00 0.00 0.00 0.03 0.03 0.07 0.16 0.13 0.13 0.02 0.00 0.00 0.00 0.00 0.00 0.00 0.00 0.00 0.00 0.00 0.00 0.00 0.00 0.00 0.00 0.00 0.00 0.00 0.00 0.00 0.00 0.00 0.00 0.00 0.00 0.00 0.00 0.00 0.00 0.00 0.00 0.00
0.07 0.00 0.00 0.01 0.05 0.05 0.11 0.19 0.26 0.26 0.17 0.20 0.15 0.15 0.00 0.00 0.00 0.00 0.00 0.00 0.00 0.00 0.00 0.00 0.00 0.00 0.00 0.00 0.03 0.03 0.04 0.01 0.00 0.00 0.00 0.00 0.00 0.00 0.00 0.00 0.00 0.00 0.00 0.00 0.00 0.00 0.00 0.00 0.00 0.00 0.00 0.00 0.00 0.00 0.00 0.00 0.00 0.00 0.00 0.00 0.00 0.00 0.00 0.01 0.03 0.03 0.12 0.20 0.11 0.11 0.03 0.00 0.00 0.00 0.00 0.00 0.00 0.00 0.00 0.00 0.00 0.00 0.00 0.00 0.00 0.00 0.00 0.00 0.00 0.00 0.00 0.00 0.00 0.00 0.00 0.00 0.00 0.00 0.00 0.00 0.00 0.00 0.00
0.07 0.02 0.00 0.05 0.09 0.09 0.16 0.22 0.30 0.30 0.31 0.22 0.17 0.17 0.00 0.00 0.00 0.00 0.00 0.00 0.00 0.00 0.00 0.00 0.00 0.00 0.00 0.00 0.04 0.04 0.03 0.01 0.00 0.00 0.00 0.00 0.00 0.00 0.00 0.00 0.00 0.00 0.00 0.00 0.00 0.00 0.00 0.00 0.00 0.00 0.00 0.00 0.00 0.00 0.00 0.00 0.00 0.00 0.00 0.00 0.00 0.00 0.00 0.01 0.01 0.01 0.17 0.19 0.07 0.07 0.01 0.00 0.00 0.00 0.00 0.00 0.00 0.00 0.00 0.00 0.00 0.00 0.00 0.00 0.00 0.00 0.00 0.00 0.00 0.00 0.00 0.00 0.00 0.00 0.00 0.00 0.00 0.00 0.00 0.00 0.00 0.00 0.00
0.09 0.00 0.00 0.06 0.11 0.11 0.21 0.25 0.34 0.34 0.23 0.19 0.14 0.14 0.00 0.00 0.00 0.00 0.00 0.00 0.00 0.00 0.00 0.00 0.00 0.00 0.00 0.00 0.04 0.04 0.03 0.02 0.00 0.00 0.00 0.00 0.00 0.00 0.00 0.00 0.00 0.00 0.00 0.00 0.00 0.00 0.00 0.00 0.00 0.00 0.00 0.00 0.00 0.00 0.00 0.00 0.00 0.00 0.00 0.00 0.00 0.00 0.00 0.00 0.03 0.03 0.15 0.14 0.11 0.11 0.00 0.00 0.00 0.00 0.00 0.00 0.00 0.00 0.00 0.00 0.00 0.00 0.00 0.00 0.00 0.00 0.00 0.00 0.00 0.00 0.00 0.00 0.00 0.00 0.00 0.00 0.00 0.00 0.00 0.00 0.00 0.00 0.00
0.07 0.00 0.00 0.07 0.06 0.06 0.23 0.24 0.37 0.37 0.21 0.18 0.09 0.09 0.00 0.00 0.00 0.00 0.00 0.00 0.00 0.00 0.00 0.00 0.00 0.00 0.00 0.00 0.02 0.02 0.03 0.01 0.00 0.00 0.00 0.00 0.00 0.00 0.00 0.00 0.00 0.00 0.00 0.00 0.00 0.00 0.00 0.00 0.00 0.00 0.00 0.00 0.00 0.00 0.00 0.00 0.00 0.00 0.00 0.00 0.00 0.00 0.00 0.00 0.08 0.08 0.15 0.09 0.06 0.06 0.01 0.00 0.00 0.00 0.00 0.00 0.00 0.00 0.00 0.00 0.00 0.00 0.00 0.00 0.00 0.00 0.00 0.00 0.00 0.00 0.00 0.00 0.00 0.00 0.00 0.00 0.00 0.00 0.00 0.00 0.00 0.00 0.00
0.12 0.05 0.00 0.09 0.10 0.10 0.25 0.26 0.36 0.36 0.18 0.16 0.06 0.06 0.00 0.00 0.00 0.00 0.00 0.00 0.00 0.00 0.00 0.00 0.00 0.00 0.00 0.01 0.02 0.02 0.03 0.01 0.00 0.00 0.00 0.00 0.00 0.00 0.00 0.00 0.00 0.00 0.00 0.00 0.00 0.00 0.00 0.00 0.00 0.00 0.00 0.00 0.00 0.00 0.00 0.00 0.00 0.00 0.00 0.00 0.00 0.00 0.00 0.00 0.12 0.12 0.14 0.10 0.03 0.03 0.01 0.00 0.00 0.00 0.00 0.00 0.00 0.01 0.00 0.00 0.00 0.00 0.00 0.00 0.00 0.00 0.00 0.00 0.00 0.00 0.00 0.00 0.00 0.00 0.00 0.00 0.00 0.00 0.00 0.00 0.00 0.00 0.00
0.11 0.01 0.00 0.08 0.13 0.13 0.27 0.19 0.36 0.36 0.20 0.16 0.02 0.02 0.00 0.00 0.00 0.00 0.00 0.00 0.00 0.00 0.00 0.00 0.00 0.00 0.00 0.01 0.02 0.02 0.02 0.01 0.00 0.00 0.00 0.00 0.00 0.00 0.00 0.00 0.00 0.00 0.00 0.00 0.00 0.00 0.00 0.00 0.00 0.00 0.00 0.00 0.00 0.00 0.00 0.00 0.00 0.00 0.00 0.00 0.00 0.00 0.00 0.00 0.10 0.10 0.13 0.07 0.02 0.02 0.00 0.00 0.00 0.00 0.00 0.01 0.01 0.00 0.00 0.00 0.00 0.00 0.00 0.00 0.00 0.00 0.00 0.00 0.00 0.00 0.00 0.00 0.00 0.00 0.00 0.00 0.00 0.00 0.00 0.00 0.00 0.00 0.00
0.20 0.05 0.00 0.09 0.15 0.15 0.30 0.19 0.36 0.36 0.26 0.19 0.01 0.01 0.00 0.00 0.00 0.00 0.00 0.00 0.00 0.00 0.00 0.00 0.00 0.00 0.00 0.00 0.00 0.00 0.01 0.00 0.00 0.00 0.00 0.00 0.00 0.00 0.00 0.00 0.00 0.00 0.00 0.00 0.00 0.00 0.00 0.00 0.00 0.00 0.00 0.00 0.00 0.00 0.00 0.00 0.00 0.00 0.00 0.00 0.00 0.00 0.00 0.03 0.12 0.12 0.12 0.05 0.04 0.04 0.00 0.00 0.00 0.00 0.01 0.00 0.00 0.00 0.00 0.00 0.00 0.00 0.00 0.00 0.00 0.00 0.00 0.00 0.00 0.00 0.00 0.00 0.00 0.00 0.00 0.00 0.00 0.00 0.00 0.00 0.00 0.00 0.00
0.15 0.06 0.01 0.09 0.12 0.12 0.28 0.21 0.42 0.42 0.21 0.15 0.01 0.01 0.00 0.00 0.00 0.00 0.00 0.00 0.00 0.00 0.00 0.00 0.00 0.00 0.00 0.00 0.00 0.00 0.00 0.00 0.00 0.00 0.00 0.00 0.00 0.00 0.00 0.00 0.00 0.00 0.00 0.00 0.00 0.00 0.00 0.00 0.00 0.00 0.00 0.00 0.00 0.00 0.00 0.00 0.00 0.00 0.00 0.00 0.00 0.00 0.00 0.07 0.14 0.14 0.13 0.04 0.03 0.03 0.00 0.00 0.00 0.00 0.00 0.00 0.00 0.00 0.00 0.00 0.00 0.00 0.00 0.00 0.00 0.00 0.00 0.00 0.00 0.00 0.00 0.00 0.00 0.00 0.00 0.00 0.00 0.00 0.00 0.00 0.00 0.00 0.00
0.15 0.10 0.03 0.13 0.12 0.12 0.29 0.26 0.43 0.43 0.18 0.13 0.01 0.01 0.01 0.00 0.00 0.00 0.00 0.00 0.00 0.00 0.00 0.00 0.00 0.00 0.00 0.00 0.00 0.00 0.00 0.00 0.00 0.00 0.00 0.00 0.00 0.00 0.00 0.00 0.00 0.00 0.00 0.00 0.00 0.00 0.00 0.00 0.00 0.00 0.00 0.00 0.00 0.00 0.00 0.00 0.00 0.00 0.00 0.00 0.00 0.00 0.01 0.05 0.13 0.13 0.13 0.06 0.02 0.02 0.00 0.00 0.00 0.00 0.00 0.00 0.00 0.00 0.00 0.00 0.00 0.00 0.00 0.00 0.00 0.00 0.00 0.00 0.00 0.00 0.00 0.00 0.00 0.00 0.00 0.00 0.00 0.00 0.00 0.00 0.00 0.00 0.00
0.14 0.07 0.02 0.15 0.13 0.13 0.18 0.30 0.45 0.45 0.19 0.17 0.01 0.01 0.01 0.00 0.00 0.00 0.00 0.00 0.00 0.00 0.00 0.00 0.00 0.00 0.00 0.00 0.00 0.00 0.00 0.00 0.00 0.00 0.00 0.00 0.00 0.00 0.00 0.00 0.00 0.00 0.00 0.00 0.00 0.00 0.00 0.00 0.00 0.00 0.00 0.00 0.00 0.00 0.00 0.00 0.00 0.00 0.00 0.00 0.00 0.00 0.04 0.09 0.12 0.12 0.10 0.04 0.00 0.00 0.00 0.00 0.00 0.00 0.00 0.00 0.00 0.00 0.00 0.00 0.00 0.00 0.00 0.00 0.00 0.00 0.00 0.00 0.00 0.00 0.00 0.00 0.00 0.00 0.00 0.00 0.00 0.00 0.00 0.00 0.00 0.00 0.00
0.11 0.11 0.03 0.09 0.17 0.17 0.24 0.41 0.35 0.35 0.20 0.18 0.08 0.08 0.04 0.00 0.00 0.00 0.00 0.00 0.00 0.00 0.00 0.00 0.00 0.00 0.00 0.00 0.00 0.00 0.00 0.00 0.00 0.00 0.00 0.00 0.00 0.01 0.00 0.00 0.00 0.00 0.00 0.00 0.00 0.00 0.00 0.00 0.00 0.00 0.00 0.00 0.00 0.00 0.00 0.00 0.00 0.00 0.00 0.00 0.00 0.01 0.06 0.09 0.10 0.10 0.10 0.01 0.01 0.01 0.00 0.00 0.00 0.00 0.00 0.00 0.00 0.00 0.00 0.00 0.00 0.00 0.00 0.00 0.00 0.00 0.00 0.00 0.00 0.00 0.00 0.00 0.00 0.00 0.00 0.00 0.00 0.00 0.00 0.00 0.00 0.00 0.00
0.12 0.11 0.07 0.07 0.18 0.18 0.26 0.37 0.33 0.33 0.40 0.14 0.12 0.12 0.05 0.00 0.00 0.00 0.00 0.00 0.00 0.00 0.00 0.00 0.00 0.00 0.00 0.00 0.00 0.00 0.00 0.00 0.00 0.00 0.00 0.00 0.00 0.01 0.01 0.00 0.00 0.00 0.00 0.00 0.00 0.00 0.00 0.00 0.00 0.00 0.00 0.00 0.00 0.00 0.00 0.00 0.00 0.00 0.00 0.00 0.00 0.02 0.04 0.07 0.06 0.06 0.05 0.02 0.00 0.00 0.00 0.00 0.00 0.00 0.00 0.00 0.00 0.00 0.00 0.00 0.00 0.00 0.00 0.00 0.00 0.00 0.00 0.00 0.00 0.00 0.00 0.00 0.00 0.00 0.00 0.00 0.00 0.00 0.00 0.00 0.00 0.00 0.00
0.18 0.09 0.09 0.05 0.18 0.18 0.32 0.35 0.33 0.33 0.31 0.16 0.13 0.13 0.04 0.02 0.02 0.00 0.00 0.00 0.00 0.00 0.00 0.00 0.00 0.00 0.00 0.00 0.00 0.00 0.00 0.00 0.00 0.00 0.00 0.00 0.00 0.01 0.00 0.00 0.00 0.00 0.00 0.00 0.00 0.00 0.00 0.00 0.00 0.00 0.00 0.00 0.00 0.00 0.00 0.00 0.00 0.00 0.00 0.00 0.00 0.01 0.02 0.03 0.01 0.01 0.02 0.01 0.00 0.00 0.00 0.00 0.00 0.00 0.00 0.00 0.00 0.00 0.00 0.00 0.00 0.00 0.00 0.00 0.00 0.00 0.00 0.00 0.00 0.00 0.00 0.00 0.00 0.00 0.00 0.00 0.00 0.00 0.00 0.00 0.00 0.00 0.00
0.24 0.19 0.09 0.06 0.19 0.19 0.29 0.32 0.38 0.38 0.34 0.17 0.17 0.17 0.07 0.01 0.01 0.00 0.00 0.00 0.00 0.00 0.00 0.00 0.00 0.00 0.00 0.00 0.00 0.00 0.00 0.00 0.00 0.00 0.00 0.00 0.00 0.01 0.01 0.00 0.00 0.00 0.00 0.00 0.00 0.00 0.00 0.00 0.00 0.00 0.00 0.00 0.00 0.00 0.00 0.00 0.00 0.00 0.00 0.00 0.00 0.00 0.00 0.00 0.00 0.00 0.00 0.00 0.00 0.00 0.00 0.00 0.00 0.00 0.00 0.00 0.00 0.00 0.00 0.00 0.00 0.00 0.00 0.00 0.00 0.00 0.00 0.00 0.00 0.00 0.00 0.00 0.00 0.00 0.00 0.00 0.00 0.00 0.00 0.00 0.00 0.00 0.00
0.22 0.18 0.06 0.06 0.18 0.18 0.30 0.36 0.29 0.29 0.24 0.20 0.20 0.20 0.20 0.02 0.02 0.00 0.00 0.00 0.00 0.00 0.00 0.00 0.00 0.00 0.00 0.00 0.00 0.00 0.01 0.00 0.00 0.00 0.00 0.00 0.00 0.00 0.00 0.01 0.01 0.00 0.00 0.00 0.00 0.00 0.00 0.00 0.00 0.00 0.00 0.00 0.00 0.00 0.00 0.00 0.00 0.00 0.00 0.00 0.00 0.00 0.00 0.00 0.00 0.00 0.00 0.00 0.00 0.00 0.00 0.00 0.00 0.00 0.00 0.00 0.00 0.00 0.00 0.00 0.00 0.00 0.00 0.00 0.00 0.00 0.00 0.00 0.00 0.00 0.00 0.00 0.00 0.00 0.00 0.00 0.00 0.00 0.00 0.00 0.00 0.00 0.00
0.17 0.20 0.07 0.05 0.19 0.19 0.35 0.34 0.27 0.27 0.22 0.24 0.18 0.18 0.26 0.03 0.03 0.00 0.00 0.00 0.00 0.00 0.01 0.01 0.01 0.01 0.00 0.01 0.00 0.00 0.01 0.01 0.00 0.00 0.00 0.00 0.00 0.00 0.00 0.01 0.01 0.00 0.00 0.00 0.00 0.00 0.00 0.00 0.00 0.00 0.00 0.00 0.00 0.00 0.00 0.00 0.00 0.00 0.00 0.00 0.00 0.00 0.00 0.00 0.00 0.00 0.00 0.00 0.00 0.00 0.00 0.00 0.00 0.00 0.00 0.00 0.00 0.00 0.00 0.00 0.00 0.00 0.00 0.00 0.00 0.00 0.00 0.00 0.00 0.00 0.00 0.00 0.00 0.00 0.00 0.00 0.00 0.00 0.00 0.00 0.00 0.00 0.00
0.15 0.19 0.12 0.07 0.17 0.17 0.33 0.32 0.20 0.20 0.19 0.19 0.19 0.19 0.27 0.09 0.09 0.01 0.00 0.00 0.00 0.00 0.01 0.01 0.01 0.01 0.01 0.01 0.01 0.01 0.01 0.01 0.00 0.00 0.00 0.00 0.00 0.00 0.00 0.01 0.01 0.00 0.00 0.00 0.00 0.00 0.00 0.00 0.00 0.00 0.00 0.00 0.00 0.00 0.00 0.00 0.00 0.00 0.00 0.00 0.00 0.00 0.00 0.00 0.00 0.00 0.00 0.00 0.00 0.00 0.00 0.00 0.00 0.00 0.00 0.00 0.00 0.00 0.00 0.00 0.00 0.00 0.00 0.00 0.00 0.00 0.00 0.00 0.00 0.00 0.00 0.00 0.00 0.00 0.00 0.00 0.00 0.00 0.00 0.00 0.00 0.00 0.00
0.15 0.20 0.16 0.22 0.23 0.23 0.34 0.34 0.18 0.18 0.19 0.11 0.21 0.21 0.26 0.21 0.21 0.02 0.01 0.02 0.02 0.02 0.00 0.01 0.01 0.01 0.01 0.01 0.00 0.00 0.01 0.01 0.00 0.00 0.00 0.00 0.00 0.00 0.00 0.00 0.00 0.00 0.00 0.00 0.00 0.00 0.00 0.00 0.00 0.00 0.00 0.00 0.00 0.00 0.00 0.00 0.00 0.00 0.00 0.00 0.00 0.00 0.03 0.02 0.00 0.00 0.00 0.00 0.00 0.00 0.00 0.00 0.00 0.00 0.00 0.00 0.00 0.00 0.00 0.00 0.00 0.00 0.00 0.00 0.00 0.00 0.00 0.00 0.00 0.00 0.00 0.00 0.00 0.00 0.00 0.00 0.00 0.00 0.00 0.00 0.00 0.00 0.00
0.18 0.20 0.22 0.26 0.29 0.29 0.29 0.37 0.22 0.22 0.15 0.09 0.14 0.14 0.27 0.25 0.25 0.05 0.03 0.05 0.05 0.04 0.01 0.01 0.01 0.01 0.01 0.01 0.00 0.00 0.00 0.01 0.01 0.01 0.00 0.00 0.00 0.00 0.00 0.00 0.00 0.00 0.00 0.00 0.00 0.00 0.00 0.00 0.00 0.00 0.00 0.00 0.00 0.00 0.00 0.00 0.00 0.00 0.00 0.00 0.00 0.00 0.01 0.05 0.01 0.01 0.00 0.00 0.00 0.00 0.00 0.00 0.00 0.00 0.00 0.00 0.00 0.00 0.00 0.00 0.00 0.00 0.00 0.00 0.00 0.00 0.00 0.00 0.00 0.00 0.00 0.00 0.00 0.00 0.00 0.00 0.00 0.00 0.01 0.00 0.00 0.00 0.00
0.28 0.25 0.34 0.30 0.26 0.26 0.31 0.35 0.26 0.26 0.17 0.10 0.12 0.12 0.30 0.27 0.27 0.08 0.05 0.15 0.15 0.06 0.01 0.01 0.01 0.01 0.01 0.01 0.00 0.00 0.00 0.01 0.01 0.01 0.00 0.00 0.00 0.00 0.00 0.00 0.00 0.00 0.00 0.00 0.00 0.00 0.00 0.00 0.00 0.00 0.00 0.00 0.00 0.00 0.00 0.00 0.00 0.00 0.00 0.00 0.00 0.00 0.01 0.12 0.00 0.00 0.00 0.00 0.00 0.00 0.00 0.00 0.00 0.00 0.00 0.00 0.00 0.00 0.00 0.00 0.00 0.00 0.00 0.00 0.00 0.00 0.00 0.04 0.01 0.01 0.00 0.00 0.00 0.00 0.00 0.00 0.00 0.00 0.00 0.00 0.00 0.00 0.00
0.30 0.44 0.39 0.31 0.27 0.27 0.25 0.37 0.27 0.27 0.16 0.08 0.10 0.10 0.30 0.26 0.26 0.07 0.10 0.20 0.20 0.08 0.01 0.01 0.01 0.01 0.01 0.01 0.00 0.00 0.00 0.00 0.00 0.00 0.00 0.00 0.00 0.00 0.00 0.00 0.00 0.00 0.00 0.00 0.00 0.00 0.00 0.00 0.00 0.00 0.00 0.00 0.00 0.00 0.00 0.00 0.00 0.00 0.00 0.00 0.00 0.00 0.00 0.10 0.00 0.00 0.00 0.00 0.00 0.00 0.00 0.00 0.00 0.00 0.02 0.01 0.01 0.01 0.00 0.00 0.00 0.00 0.00 0.00 0.02 0.02 0.04 0.12 0.11 0.11 0.00 0.00 0.00 0.00 0.02 0.01 0.01 0.00 0.00 0.00 0.00 0.00 0.00
0.41 0.55 0.38 0.30 0.28 0.28 0.28 0.35 0.33 0.33 0.18 0.09 0.13 0.13 0.27 0.27 0.27 0.15 0.12 0.30 0.30 0.13 0.02 0.01 0.01 0.01 0.01 0.02 0.00 0.00 0.00 0.00 0.00 0.00 0.00 0.00 0.00 0.00 0.00 0.00 0.00 0.00 0.00 0.00 0.00 0.00 0.00 0.00 0.00 0.00 0.00 0.00 0.00 0.00 0.00 0.00 0.00 0.00 0.00 0.00 0.00 0.00 0.00 0.09 0.03 0.03 0.00 0.00 0.00 0.00 0.00 0.00 0.01 0.01 0.08 0.04 0.04 0.02 0.03 0.11 0.11 0.15 0.00 0.00 0.00 0.00 0.02 0.04 0.07 0.07 0.02 0.00 0.00 0.00 0.00 0.00 0.00 0.00 0.00 0.00 0.00 0.00 0.00
0.64 0.56 0.41 0.32 0.35 0.35 0.31 0.38 0.32 0.32 0.20 0.08 0.11 0.11 0.17 0.27 0.27 0.23 0.14 0.34 0.34 0.12 0.02 0.01 0.01 0.01 0.01 0.02 0.01 0.01 0.00 0.00 0.00 0.00 0.00 0.00 0.00 0.00 0.01 0.00 0.00 0.00 0.00 0.00 0.00 0.00 0.00 0.00 0.00 0.00 0.00 0.00 0.00 0.00 0.00 0.00 0.00 0.00 0.00 0.00 0.00 0.00 0.00 0.06 0.01 0.01 0.03 0.00 0.00 0.00 0.00 0.00 0.03 0.03 0.03 0.09 0.09 0.09 0.03 0.08 0.08 0.15 0.02 0.00 0.00 0.00 0.00 0.00 0.00 0.00 0.00 0.00 0.00 0.00 0.00 0.00 0.00 0.00 0.00 0.00 0.00 0.00 0.00
0.81 0.64 0.49 0.43 0.45 0.45 0.35 0.38 0.27 0.27 0.21 0.10 0.13 0.13 0.22 0.43 0.43 0.30 0.14 0.34 0.34 0.46 0.04 0.01 0.01 0.01 0.00 0.03 0.01 0.01 0.00 0.00 0.00 0.00 0.01 0.01 0.01 0.02 0.05 0.05 0.05 0.01 0.00 0.00 0.00 0.00 0.00 0.00 0.00 0.00 0.00 0.00 0.00 0.00 0.00 0.00 0.00 0.00 0.00 0.00 0.00 0.00 0.00 0.03 0.02 0.02 0.07 0.02 0.03 0.03 0.04 0.04 0.06 0.06 0.02 0.01 0.01 0.08 0.01 0.01 0.01 0.08 0.00 0.00 0.00 0.00 0.00 0.00 0.00 0.00 0.00 0.00 0.00 0.00 0.00 0.00 0.00 0.00 0.00 0.00 0.00 0.00 0.00
1.02 0.82 0.71 0.58 0.52 0.52 0.48 0.38 0.37 0.37 0.30 0.11 0.09 0.09 0.21 0.30 0.30 0.32 0.16 0.47 0.47 0.59 0.10 0.04 0.01 0.01 0.01 0.04 0.03 0.03 0.00 0.01 0.03 0.03 0.05 0.08 0.08 0.06 0.22 0.16 0.16 0.07 0.01 0.00 0.00 0.00 0.00 0.00 0.00 0.00 0.00 0.00 0.00 0.00 0.00 0.00 0.00 0.00 0.00 0.00 0.00 0.00 0.00 0.00 0.04 0.04 0.13 0.05 0.06 0.06 0.08 0.06 0.08 0.08 0.04 0.01 0.01 0.05 0.00 0.00 0.00 0.01 0.00 0.00 0.00 0.00 0.00 0.00 0.00 0.00 0.00 0.01 0.00 0.00 0.00 0.00 0.00 0.00 0.01 0.01 0.01 0.03 0.02
1.21 1.00 0.88 0.60 0.69 0.69 0.49 0.40 0.39 0.39 0.27 0.09 0.06 0.06 0.07 0.27 0.27 0.34 0.40 0.46 0.46 0.87 0.17 0.09 0.03 0.03 0.16 0.08 0.04 0.04 0.02 0.05 0.09 0.09 0.04 0.07 0.07 0.09 0.27 0.23 0.23 0.18 0.03 0.02 0.00 0.00 0.00 0.00 0.00 0.00 0.00 0.00 0.00 0.00 0.00 0.00 0.00 0.00 0.00 0.00 0.00 0.00 0.00 0.00 0.00 0.00 0.15 0.08 0.09 0.09 0.09 0.09 0.05 0.05 0.08 0.07 0.07 0.04 0.17 0.10 0.10 0.08 0.16 0.12 0.10 0.10 0.08 0.10 0.08 0.08 0.04 0.02 0.01 0.01 0.01 0.05 0.05 0.02 0.02 0.12 0.12 0.01 0.01
1.46 0.99 0.81 0.59 0.67 0.67 0.60 0.41 0.32 0.32 0.18 0.09 0.07 0.07 0.10 0.38 0.38 0.49 0.40 0.40 0.40 0.83 0.73 0.20 0.12 0.12 0.25 0.20 0.07 0.07 0.08 0.08 0.10 0.10 0.07 0.09 0.09 0.08 0.33 0.26 0.26 0.22 0.10 0.09 0.02 0.02 0.00 0.00 0.00 0.00 0.00 0.00 0.00 0.00 0.00 0.00 0.00 0.00 0.00 0.00 0.00 0.00 0.00 0.00 0.00 0.00 0.09 0.09 0.07 0.07 0.08 0.07 0.01 0.01 0.02 0.04 0.04 0.09 0.10 0.16 0.16 0.20 0.15 0.13 0.12 0.12 0.16 0.14 0.34 0.34 0.13 0.17 0.07 0.07 0.04 0.30 0.30 0.43 0.28 0.05 0.05 0.02 0.01
1.59 1.03 0.73 0.58 0.43 0.43 0.50 0.45 0.31 0.31 0.17 0.11 0.14 0.14 0.09 0.35 0.35 0.45 0.45 0.51 0.51 0.83 0.86 0.32 0.28 0.28 0.41 0.36 0.13 0.13 0.15 0.09 0.08 0.08 0.17 0.11 0.11 0.14 0.30 0.33 0.33 0.24 0.15 0.21 0.07 0.07 0.03 0.00 0.00 0.00 0.00 0.00 0.00 0.00 0.00 0.00 0.00 0.03 0.00 0.00 0.00 0.00 0.00 0.00 0.00 0.00 0.07 0.07 0.04 0.04 0.04 0.04 0.00 0.00 0.00 0.02 0.02 0.06 0.05 0.06 0.06 0.11 0.08 0.05 0.04 0.04 0.09 0.15 0.34 0.34 0.22 0.34 0.17 0.17 0.14 0.04 0.04 0.15 0.15 0.07 0.07 0.03 0.02
1.41 0.98 0.71 0.56 0.32 0.32 0.42 0.44 0.33 0.33 0.22 0.12 0.09 0.09 0.13 0.31 0.31 0.67 0.75 0.71 0.71 0.93 1.06 0.56 0.73 0.73 0.61 0.47 0.36 0.36 0.22 0.12 0.12 0.12 0.23 0.16 0.16 0.14 0.36 0.50 0.50 0.28 0.15 0.25 0.23 0.23 0.10 0.02 0.00 0.00 0.01 0.00 0.00 0.00 0.00 0.00 0.00 0.08 0.00 0.00 0.00 0.00 0.00 0.00 0.01 0.01 0.05 0.10 0.04 0.04 0.02 0.02 0.00 0.00 0.00 0.01 0.01 0.02 0.07 0.05 0.05 0.05 0.08 0.06 0.04 0.04 0.03 0.14 0.21 0.21 0.17 0.19 0.27 0.27 0.18 0.09 0.09 0.04 0.06 0.00 0.00 0.05 0.04
1.35 0.89 0.73 0.59 0.43 0.43 0.42 0.47 0.29 0.29 0.26 0.15 0.15 0.15 0.15 0.30 0.30 0.84 0.98 1.18 1.18 1.13 1.45 1.26 1.15 1.15 1.07 0.80 0.63 0.63 0.55 0.45 0.19 0.19 0.34 0.23 0.23 0.17 0.37 0.68 0.68 0.44 0.31 0.29 0.38 0.38 0.28 0.16 0.04 0.04 0.12 0.05 0.04 0.04 0.00 0.39 0.39 0.07 0.02 0.03 0.03 0.00 0.00 0.00 0.00 0.00 0.06 0.08 0.09 0.09 0.02 0.02 0.01 0.01 0.00 0.02 0.02 0.04 0.05 0.13 0.13 0.10 0.09 0.11 0.12 0.12 0.12 0.07 0.05 0.05 0.10 0.01 0.16 0.16 0.11 0.10 0.10 0.05 0.00 0.10 0.10 0.02 0.04
1.31 0.83 0.69 0.60 0.51 0.51 0.40 0.45 0.36 0.36 0.27 0.16 0.19 0.19 0.17 0.23 0.23 0.93 1.19 1.55 1.55 1.35 1.48 1.43 1.25 1.25 1.28 1.15 0.84 0.84 0.77 0.65 0.23 0.23 0.39 0.22 0.22 0.20 0.14 0.41 0.41 0.49 0.42 0.47 0.59 0.59 0.58 0.47 0.59 0.59 0.43 0.24 0.26 0.26 0.17 0.43 0.43 0.39 0.14 0.10 0.10 0.05 0.00 0.00 0.00 0.00 0.05 0.07 0.08 0.08 0.05 0.02 0.01 0.01 0.00 0.03 0.03 0.04 0.01 0.08 0.08 0.07 0.08 0.07 0.12 0.12 0.05 0.03 0.04 0.04 0.02 0.02 0.00 0.00 0.03 0.00 0.00 0.00 0.00 0.01 0.01 0.02 0.02
1.22 0.86 0.66 0.59 0.51 0.51 0.39 0.47 0.43 0.43 0.30 0.15 0.17 0.17 0.22 0.26 0.26 0.75 1.11 1.55 1.55 1.72 1.62 1.41 1.37 1.37 1.42 1.35 0.88 0.88 1.04 0.96 0.67 0.67 0.51 0.34 0.34 0.19 0.24 0.42 0.42 0.76 0.58 0.64 0.76 0.76 0.83 0.84 1.03 1.03 0.86 0.68 0.54 0.54 0.43 0.56 0.56 0.58 0.39 0.21 0.21 0.12 0.09 0.03 0.00 0.00 0.02 0.10 0.08 0.08 0.05 0.02 0.01 0.01 0.00 0.01 0.01 0.02 0.00 0.06 0.06 0.07 0.05 0.10 0.08 0.08 0.01 0.06 0.06 0.06 0.05 0.00 0.00 0.00 0.00 0.00 0.00 0.00 0.00 0.01 0.01 0.04 0.04
1.18 1.15 0.79 0.78 0.76 0.76 0.49 0.44 0.53 0.53 0.32 0.13 0.17 0.17 0.24 0.22 0.22 0.33 0.81 1.21 1.21 1.72 1.82 1.81 1.82 1.82 1.51 1.63 1.21 1.21 1.14 1.21 0.91 0.91 0.74 0.47 0.47 0.30 0.42 0.57 0.57 0.77 0.87 0.94 0.93 0.93 1.11 1.16 1.55 1.55 1.49 1.07 0.88 0.88 0.78 0.80 0.80 0.76 0.60 0.28 0.28 0.18 0.15 0.12 0.05 0.05 0.03 0.08 0.08 0.08 0.06 0.05 0.02 0.02 0.01 0.02 0.02 0.03 0.00 0.01 0.01 0.01 0.01 0.02 0.04 0.04 0.02 0.03 0.02 0.02 0.01 0.00 0.00 0.00 0.00 0.00 0.00 0.00 0.00 0.00 0.00 0.01 0.03
1.23 1.19 0.88 0.95 1.09 1.09 1.11 0.80 0.85 0.85 0.37 0.26 0.18 0.18 0.25 0.28 0.28 0.20 0.35 0.39 0.39 0.59 1.20 1.00 1.40 1.40 1.64 1.62 1.64 1.64 1.39 1.25 1.34 1.34 1.28 0.71 0.71 0.51 0.37 0.36 0.36 0.21 0.42 1.01 1.00 1.00 1.00 1.14 2.21 2.21 2.69 2.37 1.33 1.33 1.10 1.55 1.55 1.16 0.77 0.63 0.63 0.59 0.41 0.36 0.29 0.29 0.17 0.17 0.12 0.12 0.09 0.14 0.11 0.11 0.04 0.03 0.03 0.06 0.01 0.00 0.00 0.00 0.00 0.00 0.00 0.00 0.01 0.01 0.01 0.01 0.00 0.02 0.01 0.01 0.00 0.00 0.00 0.00 0.00 0.02 0.02 0.02 0.03
1.35 1.16 0.78 0.81 1.04 1.04 1.41 1.21 1.09 1.09 0.42 0.32 0.23 0.23 0.27 0.30 0.30 0.29 0.30 0.34 0.34 0.35 0.35 0.49 0.74 0.74 1.02 1.18 1.43 1.43 1.50 1.28 1.28 1.28 1.26 0.74 0.74 0.52 0.39 0.25 0.25 0.18 0.21 0.43 0.88 0.88 0.95 1.14 1.79 1.79 2.03 2.08 1.90 1.90 1.48 1.79 1.79 1.45 0.85 0.68 0.68 0.66 0.48 0.45 0.41 0.41 0.38 0.27 0.20 0.20 0.15 0.22 0.21 0.21 0.07 0.02 0.02 0.05 0.02 0.00 0.00 0.00 0.00 0.00 0.00 0.00 0.01 0.01 0.04 0.04 0.05 0.10 0.06 0.06 0.02 0.04 0.04 0.13 0.06 0.12 0.12 0.08 0.09
0.99 1.31 0.75 0.76 0.92 0.92 1.50 1.52 1.21 1.21 0.78 0.33 0.25 0.25 0.24 0.34 0.34 0.34 0.28 0.45 0.45 0.45 0.47 0.26 0.31 0.31 0.47 0.65 0.89 0.89 1.25 1.42 1.37 1.37 1.26 1.10 1.10 0.59 0.41 0.25 0.25 0.19 0.19 0.26 0.67 0.67 0.93 1.06 1.12 1.12 1.54 1.73 1.85 1.85 1.84 1.45 1.45 1.27 1.12 0.82 0.82 0.78 0.60 0.46 0.43 0.43 0.39 0.40 0.27 0.27 0.22 0.27 0.23 0.23 0.16 0.04 0.04 0.04 0.04 0.01 0.01 0.00 0.01 0.00 0.00 0.00 0.02 0.01 0.02 0.02 0.11 0.06 0.06 0.06 0.05 0.04 0.04 0.15 0.20 0.27 0.27 0.25 0.19
0.57 0.84 0.82 0.79 1.03 1.03 1.27 1.51 1.21 1.21 0.81 0.38 0.30 0.30 0.30 0.34 0.34 0.29 0.28 0.48 0.48 0.52 0.51 0.21 0.17 0.17 0.26 0.46 0.38 0.38 0.62 0.52 1.37 1.37 1.31 1.15 1.15 0.65 0.46 0.30 0.30 0.29 0.20 0.21 0.31 0.31 0.74 0.70 0.87 0.87 1.11 1.43 1.62 1.62 1.21 1.08 1.08 1.09 1.09 0.94 0.94 0.90 0.75 0.61 0.42 0.42 0.36 0.38 0.37 0.37 0.27 0.28 0.28 0.28 0.21 0.08 0.08 0.05 0.12 0.02 0.02 0.01 0.01 0.01 0.02 0.02 0.02 0.01 0.02 0.02 0.04 0.06 0.05 0.05 0.03 0.08 0.08 0.19 0.23 0.23 0.23 0.25 0.20
0.37 0.53 0.71 0.92 1.11 1.11 1.28 1.25 1.09 1.09 0.83 0.46 0.36 0.36 0.32 0.27 0.27 0.26 0.20 0.27 0.27 0.49 0.41 0.31 0.14 0.14 0.18 0.27 0.30 0.30 0.29 0.31 0.50 0.50 1.21 1.08 1.08 0.86 0.53 0.38 0.38 0.42 0.23 0.21 0.25 0.25 0.39 0.61 0.78 0.78 0.71 1.11 1.24 1.24 0.87 0.74 0.74 0.92 1.05 1.05 1.05 0.94 0.86 0.75 0.62 0.62 0.41 0.37 0.37 0.37 0.29 0.30 0.28 0.28 0.26 0.10 0.10 0.06 0.12 0.15 0.15 0.02 0.03 0.02 0.02 0.02 0.01 0.01 0.01 0.01 0.04 0.08 0.09 0.09 0.06 0.23 0.23 0.14 0.11 0.04 0.04 0.12 0.12
0.33 0.37 0.48 0.80 1.14 1.14 0.94 0.98 0.90 0.90 0.77 0.56 0.43 0.43 0.32 0.30 0.30 0.23 0.19 0.21 0.21 0.34 0.36 0.28 0.12 0.12 0.16 0.22 0.31 0.31 0.29 0.34 0.36 0.36 0.66 0.96 0.96 0.82 0.54 0.53 0.53 0.56 0.45 0.24 0.24 0.24 0.30 0.51 0.68 0.68 0.71 0.68 1.00 1.00 0.71 0.61 0.61 0.75 0.90 0.96 0.96 0.80 0.87 0.86 0.76 0.76 0.75 0.46 0.40 0.40 0.36 0.35 0.31 0.31 0.27 0.21 0.21 0.07 0.12 0.18 0.18 0.15 0.07 0.03 0.02 0.02 0.02 0.02 0.03 0.03 0.09 0.09 0.19 0.19 0.21 0.21 0.21 0.11 0.04 0.03 0.03 0.05 0.07
0.33 0.37 0.37 0.61 0.53 0.53 0.60 0.72 0.83 0.83 0.77 0.74 0.58 0.58 0.40 0.30 0.30 0.19 0.22 0.22 0.22 0.22 0.32 0.36 0.31 0.31 0.14 0.19 0.28 0.28 0.36 0.34 0.34 0.34 0.33 0.65 0.65 0.82 0.62 0.58 0.58 0.57 0.54 0.29 0.24 0.24 0.24 0.29 0.57 0.57 0.65 0.63 0.81 0.81 0.62 0.53 0.53 0.52 0.72 0.82 0.82 0.66 0.64 0.81 0.83 0.83 0.85 0.62 0.52 0.52 0.44 0.45 0.33 0.33 0.29 0.21 0.21 0.11 0.13 0.19 0.19 0.22 0.18 0.06 0.04 0.04 0.05 0.05 0.07 0.07 0.15 0.19 0.17 0.17 0.31 0.11 0.11 0.06 0.03 0.05 0.05 0.08 0.07
0.30 0.36 0.43 0.41 0.36 0.36 0.31 0.31 0.52 0.52 0.72 0.82 0.80 0.80 0.63 0.42 0.42 0.21 0.24 0.27 0.27 0.23 0.28 0.43 0.39 0.39 0.16 0.16 0.23 0.23 0.31 0.31 0.36 0.36 0.42 0.30 0.30 0.48 0.60 0.50 0.50 0.47 0.49 0.44 0.29 0.29 0.28 0.32 0.38 0.38 0.54 0.56 0.58 0.58 0.57 0.47 0.47 0.43 0.47 0.67 0.67 0.51 0.47 0.47 0.75 0.75 0.62 0.76 0.64 0.64 0.55 0.51 0.43 0.43 0.24 0.15 0.15 0.13 0.10 0.18 0.18 0.20 0.15 0.09 0.05 0.05 0.03 0.05 0.07 0.07 0.16 0.19 0.23 0.23 0.28 0.16 0.16 0.09 0.05 0.04 0.04 0.11 0.10
0.26 0.34 0.38 0.39 0.27 0.27 0.19 0.15 0.32 0.32 0.43 0.62 0.94 0.94 0.95 0.69 0.69 0.43 0.24 0.17 0.17 0.17 0.25 0.38 0.48 0.48 0.20 0.16 0.19 0.19 0.18 0.36 0.37 0.37 0.39 0.20 0.20 0.26 0.37 0.27 0.27 0.35 0.40 0.39 0.37 0.37 0.30 0.30 0.36 0.36 0.39 0.46 0.49 0.49 0.45 0.41 0.41 0.34 0.34 0.24 0.24 0.39 0.37 0.35 0.45 0.45 0.31 0.48 0.63 0.63 0.60 0.48 0.41 0.41 0.29 0.14 0.14 0.08 0.08 0.10 0.10 0.11 0.10 0.07 0.04 0.04 0.02 0.02 0.06 0.06 0.10 0.14 0.15 0.15 0.19 0.25 0.25 0.12 0.05 0.05 0.05 0.06 0.10
0.28 0.33 0.43 0.39 0.22 0.22 0.12 0.10 0.12 0.12 0.22 0.35 0.73 0.73 0.95 1.03 1.03 0.74 0.37 0.19 0.19 0.15 0.19 0.28 0.40 0.40 0.39 0.16 0.14 0.14 0.20 0.40 0.35 0.35 0.31 0.28 0.28 0.17 0.25 0.38 0.38 0.36 0.27 0.29 0.31 0.31 0.31 0.35 0.35 0.35 0.36 0.34 0.39 0.39 0.36 0.36 0.36 0.28 0.24 0.17 0.17 0.29 0.32 0.29 0.27 0.27 0.19 0.22 0.36 0.36 0.51 0.36 0.31 0.31 0.21 0.16 0.16 0.07 0.05 0.09 0.09 0.06 0.07 0.05 0.03 0.03 0.02 0.02 0.05 0.05 0.08 0.08 0.08 0.08 0.16 0.22 0.22 0.22 0.16 0.09 0.09 0.06 0.07
0.46 0.50 0.57 0.54 0.20 0.20 0.11 0.10 0.09 0.09 0.09 0.16 0.28 0.28 0.69 0.89 0.89 0.90 0.59 0.42 0.42 0.23 0.18 0.17 0.29 0.29 0.41 0.23 0.18 0.18 0.21 0.20 0.29 0.29 0.25 0.24 0.24 0.23 0.37 0.45 0.45 0.47 0.16 0.19 0.20 0.20 0.15 0.30 0.37 0.37 0.39 0.35 0.30 0.30 0.31 0.31 0.31 0.25 0.20 0.17 0.17 0.16 0.28 0.28 0.24 0.24 0.22 0.15 0.15 0.15 0.23 0.12 0.19 0.19 0.15 0.11 0.11 0.06 0.04 0.04 0.04 0.02 0.02 0.03 0.02 0.02 0.01 0.03 0.07 0.07 0.08 0.09 0.10 0.10 0.10 0.17 0.17 0.19 0.15 0.13 0.13 0.08 0.08
0.25 0.35 0.51 0.73 0.22 0.22 0.14 0.11 0.08 0.08 0.09 0.09 0.14 0.14 0.37 0.51 0.51 0.65 0.43 0.53 0.53 0.45 0.33 0.17 0.19 0.19 0.36 0.41 0.22 0.22 0.16 0.15 0.20 0.20 0.27 0.25 0.25 0.27 0.33 0.29 0.29 0.31 0.26 0.13 0.16 0.16 0.12 0.14 0.29 0.29 0.32 0.31 0.25 0.25 0.25 0.27 0.27 0.26 0.21 0.19 0.19 0.17 0.21 0.27 0.24 0.24 0.21 0.17 0.10 0.10 0.10 0.06 0.06 0.06 0.11 0.10 0.10 0.06 0.03 0.01 0.01 0.01 0.01 0.00 0.01 0.01 0.01 0.02 0.03 0.03 0.01 0.09 0.12 0.12 0.13 0.11 0.11 0.15 0.13 0.08 0.08 0.10 0.09
0.19 0.17 0.26 0.49 0.34 0.34 0.18 0.12 0.09 0.09 0.08 0.09 0.10 0.10 0.17 0.24 0.24 0.16 0.19 0.30 0.30 0.36 0.39 0.36 0.18 0.18 0.26 0.35 0.23 0.23 0.16 0.13 0.12 0.12 0.22 0.21 0.21 0.26 0.20 0.23 0.23 0.24 0.23 0.18 0.15 0.15 0.08 0.10 0.18 0.18 0.23 0.24 0.22 0.22 0.20 0.19 0.19 0.22 0.21 0.16 0.16 0.15 0.17 0.20 0.18 0.18 0.19 0.16 0.12 0.12 0.07 0.04 0.03 0.03 0.02 0.07 0.07 0.05 0.04 0.03 0.03 0.01 0.00 0.00 0.00 0.00 0.00 0.00 0.00 0.00 0.01 0.01 0.08 0.08 0.06 0.08 0.08 0.08 0.09 0.06 0.06 0.07 0.09
0.13 0.17 0.10 0.16 0.48 0.48 0.28 0.17 0.13 0.13 0.07 0.07 0.10 0.10 0.10 0.10 0.10 0.09 0.09 0.11 0.11 0.15 0.23 0.31 0.26 0.26 0.19 0.25 0.28 0.28 0.21 0.17 0.14 0.14 0.18 0.20 0.20 0.20 0.16 0.25 0.25 0.28 0.28 0.24 0.11 0.11 0.07 0.08 0.09 0.09 0.21 0.18 0.17 0.17 0.20 0.14 0.14 0.16 0.17 0.13 0.13 0.12 0.13 0.14 0.11 0.11 0.13 0.14 0.13 0.13 0.09 0.03 0.02 0.02 0.01 0.01 0.01 0.02 0.03 0.04 0.04 0.03 0.01 0.00 0.00 0.00 0.01 0.01 0.01 0.01 0.01 0.01 0.02 0.02 0.05 0.06 0.06 0.06 0.06 0.04 0.04 0.05 0.06
0.07 0.16 0.13 0.08 0.10 0.10 0.31 0.23 0.21 0.21 0.12 0.09 0.09 0.09 0.10 0.11 0.11 0.10 0.08 0.06 0.06 0.08 0.12 0.17 0.29 0.29 0.32 0.31 0.33 0.33 0.23 0.22 0.18 0.18 0.15 0.22 0.22 0.18 0.14 0.14 0.14 0.20 0.28 0.28 0.18 0.18 0.11 0.08 0.15 0.15 0.20 0.15 0.13 0.13 0.11 0.11 0.11 0.12 0.12 0.10 0.10 0.10 0.10 0.11 0.09 0.09 0.09 0.11 0.12 0.12 0.06 0.04 0.01 0.01 0.01 0.00 0.00 0.01 0.01 0.01 0.01 0.01 0.01 0.01 0.00 0.00 0.01 0.01 0.01 0.01 0.02 0.02 0.03 0.03 0.04 0.04 0.04 0.05 0.04 0.03 0.03 0.03 0.03
0.07 0.09 0.11 0.12 0.09 0.09 0.17 0.21 0.22 0.22 0.26 0.15 0.13 0.13 0.11 0.15 0.15 0.14 0.11 0.09 0.09 0.07 0.08 0.12 0.16 0.16 0.32 0.33 0.32 0.32 0.29 0.22 0.21 0.21 0.18 0.15 0.15 0.14 0.12 0.10 0.10 0.05 0.08 0.15 0.14 0.14 0.20 0.17 0.18 0.18 0.16 0.15 0.13 0.13 0.11 0.10 0.10 0.10 0.10 0.08 0.08 0.10 0.09 0.09 0.07 0.07 0.07 0.07 0.08 0.08 0.04 0.04 0.03 0.03 0.01 0.01 0.01 0.01 0.01 0.00 0.00 0.01 0.01 0.01 0.00 0.00 0.00 0.01 0.01 0.01 0.02 0.03 0.03 0.03 0.05 0.05 0.05 0.05 0.04 0.03 0.03 0.03 0.02
0.14 0.07 0.06 0.06 0.07 0.07 0.09 0.15 0.21 0.21 0.25 0.25 0.20 0.20 0.20 0.18 0.18 0.17 0.13 0.11 0.11 0.09 0.07 0.09 0.12 0.12 0.25 0.23 0.28 0.28 0.28 0.19 0.17 0.17 0.18 0.19 0.19 0.12 0.09 0.08 0.08 0.08 0.07 0.09 0.16 0.16 0.15 0.24 0.13 0.13 0.11 0.12 0.14 0.14 0.11 0.11 0.11 0.10 0.08 0.06 0.06 0.06 0.10 0.08 0.05 0.05 0.04 0.04 0.04 0.04 0.03 0.02 0.02 0.02 0.02 0.01 0.01 0.01 0.01 0.01 0.01 0.01 0.01 0.01 0.01 0.01 0.01 0.01 0.01 0.01 0.01 0.03 0.05 0.05 0.05 0.06 0.06 0.05 0.04 0.02 0.02 0.02 0.02
0.31 0.21 0.08 0.05 0.03 0.03 0.06 0.09 0.14 0.14 0.21 0.26 0.24 0.24 0.21 0.16 0.16 0.14 0.13 0.11 0.11 0.10 0.09 0.08 0.09 0.09 0.09 0.14 0.18 0.18 0.20 0.20 0.14 0.14 0.14 0.19 0.19 0.15 0.10 0.07 0.07 0.05 0.08 0.15 0.16 0.16 0.17 0.16 0.12 0.12 0.13 0.11 0.10 0.10 0.10 0.08 0.08 0.08 0.07 0.04 0.04 0.03 0.05 0.07 0.03 0.03 0.02 0.02 0.02 0.02 0.01 0.02 0.01 0.01 0.02 0.01 0.01 0.01 0.01 0.01 0.01 0.00 0.00 0.01 0.01 0.01 0.01 0.01 0.00 0.00 0.00 0.01 0.02 0.02 0.01 0.04 0.04 0.04 0.03 0.02 0.02 0.01 0.01
0.31 0.33 0.16 0.12 0.09 0.09 0.04 0.03 0.08 0.08 0.14 0.23 0.23 0.23 0.19 0.18 0.18 0.11 0.10 0.09 0.09 0.08 0.09 0.09 0.09 0.09 0.08 0.10 0.14 0.14 0.16 0.15 0.14 0.14 0.13 0.15 0.15 0.11 0.09 0.07 0.07 0.04 0.03 0.12 0.11 0.11 0.16 0.16 0.10 0.10 0.12 0.09 0.08 0.08 0.07 0.09 0.09 0.06 0.06 0.04 0.04 0.02 0.02 0.03 0.01 0.01 0.01 0.01 0.01 0.01 0.01 0.01 0.01 0.01 0.01 0.01 0.01 0.00 0.01 0.00 0.00 0.01 0.01 0.00 0.00 0.00 0.01 0.01 0.01 0.01 0.02 0.00 0.00 0.00 0.00 0.01 0.01 0.02 0.02 0.01 0.01 0.00 0.00